TimeEDT,TemperatureF,Dew PointF,Humidity,Sea Level PressureIn,VisibilityMPH,Wind Direction,Wind SpeedMPH,Gust SpeedMPH,PrecipitationIn,Events,Conditions,WindDirDegrees,DateUTC
12:15 AM,59.0,57.2,94,30.13,10.0,SW,3.5,-,N/A,,Clear,220,2013-09-05 04:15:00
12:35 AM,55.4,55.4,100,30.14,10.0,Calm,Calm,-,N/A,,Clear,0,2013-09-05 04:35:00
12:55 AM,59.0,57.2,94,30.14,10.0,Calm,Calm,-,N/A,,Clear,0,2013-09-05 04:55:00
1:15 AM,57.2,55.4,94,30.14,10.0,Calm,Calm,-,N/A,,Clear,0,2013-09-05 05:15:00
1:35 AM,57.2,55.4,94,30.14,10.0,Calm,Calm,-,N/A,,Clear,0,2013-09-05 05:35:00
1:55 AM,59.0,55.4,88,30.14,10.0,Calm,Calm,-,N/A,,Clear,0,2013-09-05 05:55:00
2:15 AM,55.4,55.4,100,30.14,10.0,Calm,Calm,-,N/A,,Clear,0,2013-09-05 06:15:00
2:35 AM,55.4,55.4,100,30.14,10.0,WSW,3.5,-,N/A,,Clear,240,2013-09-05 06:35:00
2:55 AM,55.4,53.6,94,30.14,10.0,West,3.5,-,N/A,,Clear,260,2013-09-05 06:55:00
3:15 AM,55.4,55.4,100,30.15,10.0,Calm,Calm,-,N/A,,Clear,0,2013-09-05 07:15:00
3:35 AM,55.4,55.4,100,30.15,10.0,Calm,Calm,-,N/A,,Clear,0,2013-09-05 07:35:00
3:55 AM,55.4,55.4,100,30.15,10.0,West,3.5,-,N/A,,Clear,280,2013-09-05 07:55:00
4:15 AM,53.6,53.6,100,30.15,10.0,West,3.5,-,N/A,,Clear,260,2013-09-05 08:15:00
4:35 AM,55.4,53.6,94,30.15,10.0,West,3.5,-,N/A,,Clear,260,2013-09-05 08:35:00
4:55 AM,53.6,53.6,100,30.15,10.0,Calm,Calm,-,N/A,,Clear,0,2013-09-05 08:55:00
5:15 AM,55.4,55.4,100,30.15,10.0,Calm,Calm,-,N/A,,Clear,0,2013-09-05 09:15:00
5:35 AM,55.4,55.4,100,30.15,10.0,Calm,Calm,-,N/A,,Clear,0,2013-09-05 09:35:00
5:55 AM,55.4,53.6,94,30.16,10.0,Calm,Calm,-,N/A,,Clear,0,2013-09-05 09:55:00
6:15 AM,53.6,53.6,100,30.17,5.0,Calm,Calm,-,N/A,,Clear,0,2013-09-05 10:15:00
6:35 AM,53.6,53.6,100,30.17,7.0,Calm,Calm,-,N/A,,Clear,0,2013-09-05 10:35:00
6:55 AM,53.6,53.6,100,30.17,10.0,Calm,Calm,-,N/A,,Clear,0,2013-09-05 10:55:00
7:15 AM,53.6,53.6,100,30.17,3.0,Calm,Calm,-,N/A,,Clear,0,2013-09-05 11:15:00
7:35 AM,51.8,51.8,100,30.19,3.0,North,4.6,-,N/A,,Clear,360,2013-09-05 11:35:00
7:55 AM,53.6,53.6,100,30.19,4.0,Calm,Calm,-,N/A,,Clear,0,2013-09-05 11:55:00
8:15 AM,55.4,55.4,100,30.20,5.0,Calm,Calm,-,N/A,,Clear,0,2013-09-05 12:15:00
8:35 AM,59.0,59.0,100,30.20,5.0,North,3.5,-,N/A,,Clear,350,2013-09-05 12:35:00
8:55 AM,62.6,60.8,94,30.20,7.0,North,3.5,-,N/A,,Clear,10,2013-09-05 12:55:00
9:15 AM,64.4,60.8,88,30.21,10.0,NE,8.1,-,N/A,,Clear,40,2013-09-05 13:15:00
9:35 AM,64.4,60.8,88,30.21,10.0,NNE,6.9,-,N/A,,Clear,30,2013-09-05 13:35:00
9:55 AM,68.0,60.8,78,30.21,10.0,ENE,3.5,-,N/A,,Clear,70,2013-09-05 13:55:00
10:15 AM,69.8,60.8,73,30.22,10.0,ENE,5.8,-,N/A,,Clear,60,2013-09-05 14:15:00
10:35 AM,71.6,60.8,69,30.22,10.0,NE,3.5,-,N/A,,Clear,40,2013-09-05 14:35:00
10:55 AM,71.6,60.8,69,30.21,10.0,NNE,3.5,-,N/A,,Clear,20,2013-09-05 14:55:00
11:15 AM,73.4,60.8,65,30.21,10.0,NE,4.6,-,N/A,,Clear,40,2013-09-05 15:15:00
11:35 AM,73.4,59.0,61,30.22,10.0,North,3.5,-,N/A,,Clear,10,2013-09-05 15:35:00
11:55 AM,77.0,57.2,50,30.22,10.0,NE,6.9,-,N/A,,Clear,40,2013-09-05 15:55:00
12:15 PM,77.0,57.2,50,30.22,10.0,NNW,4.6,-,N/A,,Clear,330,2013-09-05 16:15:00
12:35 PM,78.8,59.0,51,30.22,10.0,North,3.5,-,N/A,,Clear,360,2013-09-05 16:35:00
12:55 PM,78.8,59.0,51,30.21,10.0,North,9.2,-,N/A,,Clear,10,2013-09-05 16:55:00
1:15 PM,78.8,59.0,51,30.21,10.0,North,6.9,-,N/A,,Clear,350,2013-09-05 17:15:00
1:35 PM,78.8,59.0,51,30.21,10.0,NNE,11.5,17.3,N/A,,Clear,20,2013-09-05 17:35:00
1:55 PM,78.8,59.0,51,30.21,10.0,North,9.2,-,N/A,,Scattered Clouds,10,2013-09-05 17:55:00
2:15 PM,80.6,55.4,42,30.20,10.0,North,9.2,16.1,N/A,,Clear,10,2013-09-05 18:15:00
2:35 PM,80.6,53.6,39,30.20,10.0,North,8.1,-,N/A,,Scattered Clouds,360,2013-09-05 18:35:00
2:55 PM,80.6,53.6,39,30.19,7.0,NNW,10.4,-,N/A,,Scattered Clouds,340,2013-09-05 18:55:00
3:15 PM,80.6,53.6,39,30.19,7.0,North,10.4,18.4,N/A,,Clear,10,2013-09-05 19:15:00
3:35 PM,80.6,53.6,39,30.19,10.0,North,6.9,-,N/A,,Clear,10,2013-09-05 19:35:00
3:55 PM,80.6,51.8,37,30.18,10.0,North,8.1,16.1,N/A,,Clear,10,2013-09-05 19:55:00
4:15 PM,80.6,51.8,37,30.18,10.0,North,8.1,-,N/A,,Clear,350,2013-09-05 20:15:00
4:35 PM,80.6,51.8,37,30.18,7.0,NNW,8.1,-,N/A,,Clear,330,2013-09-05 20:35:00
4:55 PM,80.6,51.8,37,30.18,4.0,NNE,9.2,-,N/A,,Haze,20,2013-09-05 20:55:00
5:15 PM,80.6,50.0,34,30.18,10.0,North,10.4,-,N/A,,Clear,360,2013-09-05 21:15:00
5:35 PM,78.8,48.2,34,30.19,7.0,NE,11.5,-,N/A,,Clear,40,2013-09-05 21:35:00
5:55 PM,78.8,46.4,32,30.19,10.0,NNE,10.4,18.4,N/A,,Clear,20,2013-09-05 21:55:00
6:15 PM,78.8,44.6,30,30.19,10.0,North,8.1,-,N/A,,Clear,10,2013-09-05 22:15:00
6:35 PM,77.0,44.6,32,30.19,10.0,NNE,8.1,-,N/A,,Clear,20,2013-09-05 22:35:00
6:55 PM,77.0,44.6,32,30.19,10.0,North,6.9,-,N/A,,Clear,10,2013-09-05 22:55:00
7:15 PM,73.4,44.6,36,30.19,7.0,North,8.1,-,N/A,,Clear,10,2013-09-05 23:15:00
7:35 PM,71.6,44.6,38,30.19,10.0,NNE,4.6,-,N/A,,Clear,30,2013-09-05 23:35:00
7:55 PM,69.8,42.8,38,30.19,10.0,NNE,6.9,-,N/A,,Clear,30,2013-09-05 23:55:00
8:15 PM,64.4,44.6,49,30.19,10.0,NE,5.8,-,N/A,,Clear,40,2013-09-06 00:15:00
8:35 PM,64.4,44.6,49,30.19,10.0,NE,4.6,-,N/A,,Clear,50,2013-09-06 00:35:00
8:55 PM,62.6,42.8,48,30.20,10.0,Calm,Calm,-,N/A,,Clear,0,2013-09-06 00:55:00
9:15 PM,62.6,42.8,48,30.20,10.0,ENE,3.5,-,N/A,,Clear,60,2013-09-06 01:15:00
9:35 PM,62.6,42.8,48,30.21,10.0,Calm,Calm,-,N/A,,Clear,0,2013-09-06 01:35:00
9:55 PM,60.8,44.6,55,30.22,10.0,Calm,Calm,-,N/A,,Clear,0,2013-09-06 01:55:00
10:15 PM,60.8,44.6,55,30.22,10.0,East,3.5,-,N/A,,Clear,80,2013-09-06 02:15:00
10:35 PM,59.0,46.4,63,30.23,10.0,Calm,Calm,-,N/A,,Clear,0,2013-09-06 02:35:00
10:55 PM,59.0,46.4,63,30.23,10.0,Calm,Calm,-,N/A,,Clear,0,2013-09-06 02:55:00
11:15 PM,57.2,44.6,63,30.24,10.0,Calm,Calm,-,N/A,,Clear,0,2013-09-06 03:15:00
11:35 PM,55.4,46.4,72,30.24,10.0,Calm,Calm,-,N/A,,Clear,0,2013-09-06 03:35:00
11:55 PM,55.4,46.4,72,30.24,10.0,Calm,Calm,-,N/A,,Clear,0,2013-09-06 03:55:00